GW4888 Weather Reports


time (UTC)temp
C
wind
direction
speed
KPH
gust
KPH
rain 1hr
cm
rain 24hr
cm
rain mn
cm
humidity
%
barometer
mb
20260510231123 29 132 17.7 19.3 0.00 0.25 0.25 69 1017.3
20260510230619 30 134 17.7 20.9 0.00 0.25 0.25 68 1017.3
20260510230115 29 127 17.7 20.9 0.00 0.25 0.25 68 1017.4
20260510225612 30 123 12.9 19.3 0.00 0.25 0.25 67 1017.3
20260510225107 30 132 19.3 20.9 0.00 0.25 0.25 67 1017.4
20260510224603 30 111 9.7 17.7 0.00 0.25 0.25 67 1017.3
20260510224100 30 121 16.1 19.3 0.00 0.25 0.25 67 1017.3
20260510223558 30 133 16.1 20.9 0.00 0.25 0.25 65 1017.2
20260510223055 30 127 16.1 17.7 0.00 0.25 0.25 65 1017.2
20260510222552 30 109 12.9 19.3 0.00 0.25 0.25 65 1017.3
20260510222049 30 149 17.7 20.9 0.00 0.25 0.25 65 1017.4
20260510221544 31 129 16.1 22.5 0.00 0.25 0.25 64 1017.3
20260510221041 31 132 16.1 20.9 0.00 0.25 0.25 62 1017.3
20260510220537 31 125 12.9 17.7 0.00 0.25 0.25 62 1017.2
20260510220033 32 129 14.5 19.3 0.00 0.25 0.25 60 1017.3
20260510215531 32 141 16.1 19.3 0.00 0.25 0.25 60 1017.2
20260510215029 32 118 12.9 20.9 0.00 0.25 0.25 59 1017.4
20260510214526 32 139 11.3 19.3 0.00 0.25 0.25 59 1017.4
20260510214022 31 114 11.3 19.3 0.00 0.25 0.25 63 1017.6
20260510213519 31 123 17.7 22.5 0.00 0.25 0.25 62 1017.6
20260510213015 31 130 16.1 17.7 0.00 0.25 0.25 63 1017.5
20260510212512 31 128 17.7 17.7 0.00 0.25 0.25 62 1017.4
20260510212009 32 126 17.7 20.9 0.00 0.25 0.25 61 1017.4
20260510211506 32 131 16.1 20.9 0.00 0.25 0.25 61 1017.4
20260510211006 32 118 14.5 19.3 0.00 0.25 0.25 61 1017.5
20260510210502 31 117 8.0 20.9 0.00 0.25 0.25 61 1017.3
20260510205956 32 109 12.9 20.9 0.00 0.25 0.25 59 1017.4
20260510205451 32 125 14.5 19.3 0.00 0.25 0.25 58 1017.5
20260510204947 31 136 14.5 22.5 0.00 0.25 0.25 61 1017.5
20260510204444 31 119 12.9 20.9 0.00 0.25 0.25 60 1017.6
20260510203940 32 120 14.5 20.9 0.00 0.25 0.25 58 1017.3
20260510203438 32 118 12.9 20.9 0.00 0.25 0.25 57 1017.6
20260510202937 32 134 17.7 19.3 0.00 0.25 0.25 58 1017.5
20260510202433 32 105 9.7 22.5 0.00 0.25 0.25 57 1017.3
20260510201930 32 126 14.5 20.9 0.00 0.25 0.25 57 1017.3
20260510201428 32 138 17.7 20.9 0.00 0.25 0.25 56 1017.2
20260510200924 32 117 11.3 19.3 0.00 0.25 0.25 56 1017.2
20260510200424 33 131 17.7 24.1 0.00 0.25 0.25 55 1017.2
20260510195918 33 138 16.1 24.1 0.00 0.25 0.25 53 1017.3
20260510195415 33 100 9.7 17.7 0.00 0.25 0.25 53 1017.4
20260510194910 33 118 12.9 19.3 0.00 0.25 0.25 53 1017.5
20260510194406 33 111 9.7 22.5 0.00 0.25 0.25 54 1017.6
20260510193902 33 130 17.7 22.5 0.00 0.25 0.25 53 1017.1
20260510193357 33 148 20.9 24.1 0.00 0.25 0.25 55 1017.4
20260510192853 33 109 12.9 22.5 0.00 0.25 0.25 55 1017.4
20260510192348 33 133 16.1 24.1 0.00 0.25 0.25 54 1017.4
20260510191844 33 128 16.1 20.9 0.00 0.25 0.25 56 1017.2
20260510191340 33 158 22.5 24.1 0.00 0.25 0.25 55 1017.4
20260510190839 34 123 16.1 25.7 0.00 0.25 0.25 54 1017.1
20260510190336 33 132 16.1 22.5 0.00 0.25 0.25 58 1017.3
20260510185831 33 141 17.7 24.1 0.00 0.25 0.25 57 1017.2
20260510185330 33 131 19.3 24.1 0.00 0.25 0.25 56 1017.4
20260510184822 33 123 14.5 24.1 0.00 0.25 0.25 57 1017.3
20260510184319 33 146 22.5 24.1 0.00 0.25 0.25 57 1017.5
20260510183819 33 151 20.9 24.1 0.00 0.25 0.25 56 1017.6
20260510183314 33 137 20.9 25.7 0.00 0.25 0.25 57 1017.5
20260510182810 32 132 17.7 24.1 0.00 0.25 0.25 58 1017.7
20260510182306 32 143 19.3 24.1 0.00 0.25 0.25 58 1017.8
20260510181803 33 143 19.3 24.1 0.00 0.25 0.25 58 1017.6
20260510181300 33 129 20.9 27.4 0.00 0.25 0.25 56 1017.7
20260510180756 33 134 20.9 24.1 0.00 0.25 0.25 56 1017.7
20260510180253 33 150 19.3 27.4 0.00 0.25 0.25 58 1018.0
20260510175751 33 134 19.3 24.1 0.00 0.25 0.25 58 1018.2
20260510175246 32 147 20.9 27.4 0.00 0.25 0.25 59 1017.9
20260510174743 32 146 20.9 24.1 0.00 0.25 0.25 59 1018.1
20260510174240 32 142 20.9 25.7 0.00 0.25 0.25 60 1018.0
20260510173736 32 128 16.1 29.0 0.00 0.25 0.25 59 1018.2
20260510173232 33 135 17.7 24.1 0.00 0.25 0.25 59 1018.3
20260510172727 33 122 14.5 22.5 0.00 0.25 0.25 58 1018.5
20260510172224 32 147 19.3 24.1 0.00 0.25 0.25 59 1018.4
20260510171721 33 131 17.7 20.9 0.00 0.25 0.25 57 1018.4
20260510171218 32 133 16.1 24.1 0.00 0.25 0.25 59 1018.5
20260510170715 33 137 16.1 25.7 0.00 0.25 0.25 58 1018.6
20260510170211 32 120 14.5 19.3 0.00 0.25 0.25 58 1018.7
20260510165707 33 127 17.7 22.5 0.00 0.25 0.25 56 1018.7
20260510165203 33 124 12.9 22.5 0.00 0.25 0.25 56 1018.7
20260510164701 32 130 17.7 22.5 0.00 0.25 0.25 61 1018.7
20260510164158 32 125 17.7 20.9 0.00 0.25 0.25 61 1018.6
20260510163658 32 153 20.9 24.1 0.00 0.25 0.25 62 1018.6
20260510163154 32 143 19.3 27.4 0.00 0.25 0.25 61 1018.6
20260510162654 31 131 14.5 22.5 0.00 0.25 0.25 62 1018.9
20260510162151 31 120 12.9 24.1 0.00 0.25 0.25 64 1019.0
20260510161647 31 148 20.9 22.5 0.00 0.25 0.25 64 1018.8
20260510161144 32 145 20.9 25.7 0.00 0.25 0.25 63 1019.0
20260510160641 31 151 20.9 24.1 0.00 0.25 0.25 64 1019.1
20260510160136 31 130 17.7 22.5 0.00 0.25 0.25 61 1019.2
20260510155632 31 143 20.9 24.1 0.00 0.25 0.25 63 1019.0
20260510155128 32 150 22.5 25.7 0.00 0.25 0.25 62 1019.0
20260510154624 32 146 22.5 24.1 0.00 0.25 0.25 62 1018.9
20260510154119 31 133 17.7 22.5 0.00 0.25 0.25 62 1018.9
20260510153615 31 136 20.9 25.7 0.00 0.25 0.25 65 1018.9
20260510153112 31 143 19.3 27.4 0.00 0.25 0.25 65 1018.8
20260510152608 31 137 17.7 22.5 0.00 0.25 0.25 65 1018.8
20260510152105 31 147 27.4 29.0 0.00 0.25 0.25 65 1018.9
20260510151601 30 159 20.9 24.1 0.00 0.25 0.25 66 1019.0
20260510151100 30 155 24.1 25.7 0.00 0.25 0.25 67 1019.0
20260510150554 30 133 22.5 27.4 0.00 0.25 0.25 66 1018.9
20260510150050 30 145 22.5 25.7 0.00 0.25 0.25 69 1019.1
20260510145547 30 135 19.3 25.7 0.00 0.25 0.25 70 1019.0
20260510145044 29 137 22.5 30.6 0.00 0.25 0.25 72 1019.1
20260510144540 28 142 19.3 25.7 0.00 0.25 0.25 73 1019.0
20260510144036 29 129 19.3 27.4 0.00 0.25 0.25 73 1019.1
20260510143531 28 141 20.9 24.1 0.00 0.25 0.25 74 1019.1
20260510143028 28 146 19.3 24.1 0.00 0.25 0.25 75 1019.1
20260510142525 28 133 19.3 24.1 0.00 0.25 0.25 74 1019.0
20260510142022 28 140 20.9 25.7 0.00 0.25 0.25 75 1019.1
20260510141518 28 137 22.5 24.1 0.00 0.25 0.25 76 1019.0
20260510141016 28 137 22.5 24.1 0.00 0.25 0.25 77 1018.9
20260510140511 27 141 19.3 22.5 0.00 0.25 0.25 77 1018.7
20260510140006 27 138 22.5 25.7 0.00 0.25 0.25 77 1018.7
20260510135501 27 148 20.9 25.7 0.00 0.25 0.25 80 1018.7
20260510134958 27 136 24.1 29.0 0.00 0.25 0.25 80 1018.7
20260510134455 27 140 24.1 27.4 0.00 0.25 0.25 81 1018.7
20260510133952 26 147 22.5 29.0 0.00 0.25 0.25 83 1018.6
20260510133448 26 131 24.1 27.4 0.00 0.25 0.25 83 1018.6
20260510132944 26 141 27.4 30.6 0.00 0.25 0.25 84 1018.7
20260510132441 26 145 24.1 27.4 0.00 0.25 0.25 84 1018.8
20260510131938 26 135 24.1 27.4 0.00 0.25 0.25 85 1018.7
20260510131436 25 141 20.9 25.7 0.00 0.25 0.25 86 1018.5
20260510130932 25 136 22.5 27.4 0.00 0.25 0.25 87 1018.4
20260510130429 25 139 20.9 27.4 0.00 0.25 0.25 87 1018.5
20260510125926 25 138 24.1 25.7 0.00 0.25 0.25 88 1018.5
20260510125422 25 134 22.5 27.4 0.00 0.25 0.25 88 1018.6
20260510124919 25 141 22.5 25.7 0.00 0.25 0.25 90 1018.6
20260510124415 24 139 25.7 27.4 0.00 0.25 0.25 91 1018.5
20260510123912 24 138 24.1 27.4 0.00 0.25 0.25 93 1018.3
20260510123407 24 137 22.5 25.7 0.00 0.25 0.25 93 1018.5
20260510122904 23 140 22.5 25.7 0.00 0.25 0.25 93 1018.4
20260510122359 23 133 22.5 25.7 0.00 0.25 0.25 94 1018.4
20260510121856 23 131 20.9 22.5 0.00 0.25 0.25 94 1018.3
20260510121354 23 134 22.5 22.5 0.00 0.25 0.25 94 1018.4
20260510120851 23 139 20.9 24.1 0.00 0.25 0.25 95 1018.3
20260510120348 23 130 22.5 24.1 0.00 0.25 0.25 96 1018.2
20260510115848 23 135 20.9 22.5 0.00 0.25 0.25 97 1018.0
20260510115346 22 137 20.9 24.1 0.00 0.25 0.25 98 1017.8
20260510114841 22 133 22.5 24.1 0.00 0.25 0.25 98 1017.8
20260510114339 22 132 20.9 22.5 0.00 0.25 0.25 99 1017.8
20260510113839 22 137 20.9 24.1 0.00 0.25 0.25 99 1017.5
20260510113336 22 133 20.9 24.1 0.00 0.25 0.25 99 1017.6
20260510112832 22 133 19.3 22.5 0.00 0.25 0.25 99 1017.6
20260510112329 22 129 19.3 20.9 0.00 0.25 0.25 98 1017.4
20260510111825 22 137 20.9 22.5 0.00 0.25 0.25 98 1017.4
20260510111323 22 133 20.9 22.5 0.00 0.25 0.25 98 1017.4
20260510110822 22 136 19.3 24.1 0.00 0.25 0.25 98 1017.4
20260510110320 22 129 20.9 20.9 0.00 0.25 0.25 98 1017.2
20260510105816 22 129 19.3 20.9 0.00 0.25 0.25 98 1017.3
20260510105316 22 132 20.9 20.9 0.00 0.25 0.25 98 1017.0
20260510104812 22 130 19.3 20.9 0.00 0.25 0.25 98 1016.9
20260510104310 22 128 19.3 20.9 0.00 0.25 0.25 98 1016.9
20260510103806 22 133 19.3 22.5 0.00 0.25 0.25 98 1016.7
20260510103303 22 135 22.5 24.1 0.00 0.25 0.25 98 1016.6
20260510102803 22 130 22.5 24.1 0.00 0.25 0.25 98 1016.5
20260510102259 22 135 19.3 24.1 0.00 0.25 0.25 98 1016.5
20260510101757 22 133 20.9 22.5 0.00 0.25 0.25 98 1016.4
20260510101255 22 126 20.9 22.5 0.00 0.25 0.25 98 1016.3
20260510100751 22 130 22.5 25.7 0.00 0.25 0.25 98 1016.3
20260510100249 22 133 20.9 24.1 0.00 0.25 0.25 98 1016.1
20260510095750 22 134 20.9 24.1 0.00 0.25 0.25 97 1016.3
20260510095245 22 133 19.3 24.1 0.00 0.25 0.25 97 1016.3
20260510094744 22 130 20.9 22.5 0.00 0.25 0.25 97 1016.1
20260510094240 22 135 20.9 22.5 0.00 0.25 0.25 97 1016.1
20260510093736 22 132 20.9 27.4 0.00 0.25 0.25 97 1016.1
20260510093233 22 145 19.3 22.5 0.00 0.25 0.25 97 1015.9
20260510092729 22 136 17.7 22.5 0.00 0.25 0.25 97 1015.8
20260510092225 22 138 20.9 24.1 0.00 0.25 0.25 97 1016.0
20260510091721 22 136 20.9 20.9 0.00 0.25 0.25 97 1015.9
20260510091218 22 132 19.3 22.5 0.00 0.25 0.25 97 1015.8
20260510090714 22 129 22.5 24.1 0.00 0.25 0.25 97 1015.7
20260510090212 22 133 20.9 25.7 0.00 0.25 0.25 97 1015.6
20260510085706 22 133 22.5 24.1 0.00 0.25 0.25 97 1015.7
20260510085202 22 138 20.9 24.1 0.00 0.25 0.25 97 1015.7
20260510084658 22 132 24.1 25.7 0.00 0.25 0.25 97 1015.4
20260510084155 22 134 22.5 24.1 0.00 0.25 0.25 97 1015.7
20260510083652 22 133 19.3 22.5 0.00 0.25 0.25 97 1015.6
20260510083149 22 136 22.5 24.1 0.00 0.25 0.25 97 1015.7
20260510082644 22 137 22.5 24.1 0.00 0.25 0.25 97 1015.5
20260510082140 22 140 20.9 24.1 0.00 0.25 0.25 98 1015.6
20260510081635 22 137 22.5 24.1 0.00 0.25 0.25 98 1015.5
20260510081131 22 135 22.5 22.5 0.00 0.25 0.25 98 1015.7
20260510080631 22 131 20.9 22.5 0.00 0.25 0.25 98 1015.7
20260510080128 22 135 22.5 22.5 0.00 0.25 0.25 98 1015.7
20260510075625 22 135 20.9 22.5 0.00 0.25 0.25 98 1015.8
20260510075122 22 137 20.9 22.5 0.00 0.25 0.25 98 1015.8
20260510074619 22 136 22.5 22.5 0.00 0.25 0.25 98 1015.5
20260510074115 22 131 19.3 22.5 0.00 0.25 0.25 98 1015.7
20260510073611 23 133 20.9 22.5 0.00 0.25 0.25 98 1015.8
20260510073108 23 133 20.9 22.5 0.00 0.25 0.25 98 1015.5
20260510072559 23 133 20.9 22.5 0.00 0.25 0.25 97 1015.8
20260510072055 23 130 19.3 20.9 0.00 0.25 0.25 97 1016.0
20260510071551 23 132 19.3 20.9 0.00 0.25 0.25 97 1016.0
20260510071049 23 130 19.3 20.9 0.00 0.25 0.25 97 1016.1
20260510070546 23 131 19.3 19.3 0.00 0.25 0.25 97 1016.0
20260510070043 23 133 19.3 20.9 0.00 0.25 0.25 97 1016.2
20260510065539 23 135 19.3 20.9 0.00 0.25 0.25 97 1016.1
20260510065035 23 135 20.9 22.5 0.00 0.25 0.25 97 1016.1
20260510064532 23 133 19.3 20.9 0.00 0.25 0.25 96 1016.0
20260510064029 23 130 20.9 20.9 0.00 0.25 0.25 96 1016.1
20260510063526 23 133 20.9 20.9 0.00 0.25 0.25 96 1016.1
20260510063023 23 131 19.3 20.9 0.05 0.25 0.25 96 1016.4
20260510062519 23 133 19.3 20.9 0.05 0.25 0.25 95 1016.5
20260510062014 23 131 19.3 20.9 0.00 0.25 0.25 95 1016.4
20260510061511 23 132 20.9 20.9 0.43 0.25 0.25 94 1016.4
20260510061007 23 131 20.9 20.9 1.45 0.25 0.25 93 1016.5
20260510060504 23 135 20.9 22.5 1.02 0.18 0.18 92 1016.8
20260510060000 23 129 17.7 19.3 0.00 0.00 0.00 91 1016.8
20260510055456 24 134 19.3 20.9 0.00 0.00 0.00 90 1017.0
20260510054954 24 131 19.3 20.9 0.00 0.00 0.00 89 1017.0
20260510054449 25 133 19.3 20.9 0.05 0.00 0.00 87 1016.8
20260510053945 25 129 19.3 20.9 0.00 0.00 0.00 86 1017.0
20260510053440 25 134 20.9 22.5 0.00 0.00 0.00 85 1017.0
20260510052937 25 130 19.3 22.5 0.00 0.00 0.00 83 1017.1
20260510052432 25 134 19.3 29.0 0.00 0.00 0.00 83 1017.0
20260510051929 25 131 24.1 24.1 0.00 0.00 0.00 82 1017.2
20260510051425 25 133 19.3 22.5 0.00 0.00 0.00 82 1017.1
20260510050922 25 131 19.3 20.9 0.00 0.00 0.00 82 1017.1
20260510050418 25 134 20.9 24.1 0.00 0.00 0.00 81 1017.4
20260510045916 25 130 19.3 20.9 0.00 0.00 0.00 82 1017.4
20260510045413 25 132 22.5 24.1 0.00 0.00 0.00 82 1017.4
20260510044910 25 130 19.3 22.5 0.00 0.00 0.00 82 1017.1
20260510044407 25 132 20.9 22.5 0.00 0.00 0.00 82 1017.2
20260510043903 25 131 20.9 22.5 0.00 0.00 0.00 82 1017.2
20260510043359 25 132 20.9 22.5 0.00 0.00 0.00 83 1017.2
20260510042857 25 133 20.9 20.9 0.00 0.00 0.00 83 1017.4
20260510042353 25 131 19.3 20.9 0.00 0.00 0.00 83 1017.4
20260510041849 25 132 19.3 20.9 0.00 0.00 0.00 83 1017.3
20260510041347 25 128 19.3 20.9 0.00 0.00 0.00 84 1017.5
20260510040844 25 133 19.3 19.3 0.00 0.00 0.00 83 1017.3
20260510040341 25 131 19.3 19.3 0.00 0.00 0.00 83 1017.2
20260510035836 25 132 20.9 20.9 0.00 0.00 0.00 82 1017.2
20260510035332 25 131 20.9 22.5 0.00 0.00 0.00 82 1017.1
20260510034828 25 135 20.9 24.1 0.00 0.00 0.00 82 1017.1
20260510034326 25 131 22.5 24.1 0.00 0.00 0.00 82 1017.0
20260510033822 25 133 20.9 24.1 0.00 0.00 0.00 82 1017.0
20260510033319 25 132 20.9 22.5 0.00 0.00 0.00 81 1017.0
20260510032815 25 135 22.5 22.5 0.00 0.00 0.00 81 1017.1
20260510032312 25 130 22.5 24.1 0.00 0.00 0.00 81 1017.1
20260510031807 26 132 20.9 20.9 0.00 0.00 0.00 81 1017.1
20260510031303 26 134 22.5 24.1 0.00 0.00 0.00 81 1017.1
20260510030802 26 132 19.3 22.5 0.00 0.00 0.00 81 1017.0
20260510030259 26 136 20.9 22.5 0.00 0.00 0.00 81 1017.0
20260510025758 26 131 20.9 22.5 0.00 0.00 0.00 81 1016.8
20260510025255 26 133 20.9 20.9 0.00 0.00 0.00 82 1017.0
20260510024751 26 136 20.9 22.5 0.00 0.00 0.00 81 1017.1
20260510024248 26 133 19.3 20.9 0.00 0.00 0.00 81 1017.0
20260510023744 26 131 19.3 20.9 0.00 0.00 0.00 81 1017.1
20260510023241 26 129 19.3 20.9 0.00 0.00 0.00 80 1017.0
20260510022737 26 123 17.7 19.3 0.00 0.00 0.00 80 1016.8
20260510022237 26 124 17.7 19.3 0.00 0.00 0.00 80 1017.1
20260510021732 26 120 16.1 20.9 0.00 0.00 0.00 79 1016.8
20260510021230 26 125 17.7 17.7 0.00 0.00 0.00 79 1016.9
20260510020730 26 129 17.7 20.9 0.00 0.00 0.00 79 1016.8
20260510020225 26 123 17.7 19.3 0.00 0.00 0.00 78 1016.9
20260510015721 26 128 19.3 20.9 0.00 0.00 0.00 78 1016.6
20260510015213 26 129 17.7 22.5 0.00 0.00 0.00 78 1016.6
20260510014708 26 131 17.7 19.3 0.00 0.00 0.00 78 1016.7
20260510014206 26 115 16.1 19.3 0.00 0.00 0.00 78 1016.4
20260510013705 26 124 17.7 22.5 0.00 0.00 0.00 77 1016.3
20260510013156 26 132 17.7 20.9 0.00 0.00 0.00 77 1016.3
20260510012655 26 132 17.7 17.7 0.00 0.00 0.00 77 1016.0
20260510012151 27 130 17.7 19.3 0.00 0.00 0.00 77 1016.0
20260510011646 27 125 17.7 20.9 0.00 0.00 0.00 77 1016.2
20260510011142 27 124 16.1 19.3 0.00 0.00 0.00 76 1016.1
20260510010638 27 136 20.9 20.9 0.00 0.00 0.00 75 1015.8
20260510010136 27 134 17.7 19.3 0.00 0.00 0.00 75 1016.0
20260510005631 27 127 17.7 20.9 0.00 0.00 0.00 74 1015.9
20260510005128 27 132 17.7 20.9 0.00 0.00 0.00 73 1015.9
20260510004627 27 133 17.7 22.5 0.00 0.00 0.00 72 1015.6
20260510004125 27 129 17.7 20.9 0.00 0.00 0.00 70 1015.6
20260510003622 27 131 14.5 19.3 0.00 0.00 0.00 69 1015.5
20260510003118 27 128 16.1 19.3 0.00 0.00 0.00 68 1015.5
20260510002618 28 130 17.7 19.3 0.00 0.00 0.00 67 1015.5
20260510002115 28 123 16.1 20.9 0.00 0.00 0.00 67 1015.4
20260510001612 28 132 17.7 19.3 0.00 0.00 0.00 66 1015.2
20260510001111 28 140 19.3 20.9 0.00 0.00 0.00 65 1015.3
20260510000611 28 121 16.1 22.5 0.00 0.00 0.00 65 1015.2
20260510000108 28 125 16.1 17.7 0.00 0.00 0.00 64 1015.2
20260509235604 28 132 17.7 22.5 0.00 0.00 0.00 63 1015.0
20260509235101 28 133 19.3 20.9 0.00 0.00 0.00 62 1015.1
20260509234557 28 130 17.7 19.3 0.00 0.00 0.00 61 1014.8
20260509234055 29 125 16.1 19.3 0.00 0.00 0.00 59 1014.9
20260509233552 29 123 14.5 19.3 0.00 0.00 0.00 58 1014.9
20260509233050 30 129 17.7 20.9 0.00 0.00 0.00 56 1014.8
20260509232546 30 126 14.5 19.3 0.00 0.00 0.00 56 1014.7
20260509232043 30 144 20.9 22.5 0.00 0.00 0.00 55 1014.6
20260509231539 30 131 17.7 22.5 0.00 0.00 0.00 56 1014.6